"Sample Date","Sample Time","Sensor Name","Sample Value","Units","Flow Rate","Sample Interval","Sample Volume","Laser Status","Number Channels","Micron Size 0","Counts/Channel 0","Micron Size 1","Counts/Channel 1","Micron Size 2","Counts/Channel 2","Micron Size 3","Counts/Channel 3","Micron Size 4","Counts/Channel 4","Micron Size 5","Counts/Channel 5","Micron Size 6","Counts/Channel 6","Micron Size 7","Counts/Channel 7","Micron Size 8","Counts/Channel 8","Micron Size 9","Counts/Channel 9","Micron Size 10","Counts/Channel 10","Micron Size 11","Counts/Channel 11","Micron Size 12","Counts/Channel 12","Micron Size 13","Counts/Channel 13","Micron Size 14","Counts/Channel 14","Micron Size 15","Counts/Channel 15","Micron Size 16","Counts/Channel 16","Micron Size 17","Counts/Channel 17","Micron Size 18","Counts/Channel 18","Micron Size 19","Counts/Channel 19","Micron Size 20","Counts/Channel 20","Micron Size 21","Counts/Channel 21","Micron Size 22","Counts/Channel 22","Micron Size 23","Counts/Channel 23","Micron Size 24","Counts/Channel 24","Micron Size 25","Counts/Channel 25","Micron Size 26","Counts/Channel 26","Micron Size 27","Counts/Channel 27","Micron Size 28","Counts/Channel 28","Micron Size 29","Counts/Channel 29","Micron Size 30","Counts/Channel 30","Micron Size 31","Counts/Channel 31"
"07/11/06","06:00:04","AMMA06",86025.000,"cc",28329.609,6.00,2832.961,1,6,0.100,43848.000,0.200,32946.000,0.300,8250.000,0.500,758.000,1.000,223.000,5.000,0
"07/11/06","06:00:10","AMMA06",86852.000,"cc",28258.592,6.00,2825.859,1,6,0.100,44212.000,0.200,33260.000,0.300,8290.000,0.500,834.000,1.000,256.000,5.000,0
"07/11/06","06:00:16","AMMA06",86977.000,"cc",28291.434,6.00,2829.144,1,6,0.100,44133.000,0.200,33091.000,0.300,8660.000,0.500,837.000,1.000,256.000,5.000,0
"07/11/06","06:00:22","AMMA06",86532.000,"cc",28315.936,6.00,2831.594,1,6,0.100,44199.000,0.200,32896.000,0.300,8291.000,0.500,850.000,1.000,295.000,5.000,1.000
"07/11/06","06:00:28","AMMA06",86333.000,"cc",28349.977,6.00,2834.998,1,6,0.100,43747.000,0.200,32891.000,0.300,8576.000,0.500,850.000,1.000,269.000,5.000,0
"07/11/06","06:00:34","AMMA06",86614.000,"cc",28343.377,6.00,2834.338,1,6,0.100,44202.000,0.200,32855.000,0.300,8445.000,0.500,827.000,1.000,285.000,5.000,0
"07/11/06","06:00:40","AMMA06",86621.000,"cc",28311.617,6.00,2831.162,1,6,0.100,44168.000,0.200,32770.000,0.300,8489.000,0.500,891.000,1.000,303.000,5.000,0
"07/11/06","06:00:46","AMMA06",86542.000,"cc",28323.766,6.00,2832.377,1,6,0.100,44152.000,0.200,32883.000,0.300,8448.000,0.500,805.000,1.000,254.000,5.000,0
"07/11/06","06:00:52","AMMA06",86651.000,"cc",28276.930,6.00,2827.693,1,6,0.100,44181.000,0.200,33102.000,0.300,8376.000,0.500,789.000,1.000,203.000,5.000,0
"07/11/06","06:00:58","AMMA06",86419.000,"cc",28331.699,6.00,2833.170,1,6,0.100,43689.000,0.200,33397.000,0.300,8329.000,0.500,796.000,1.000,208.000,5.000,0
"07/11/06","06:01:04","AMMA06",86257.000,"cc",28317.285,6.00,2831.729,1,6,0.100,43775.000,0.200,33087.000,0.300,8400.000,0.500,775.000,1.000,220.000,5.000,0
"07/11/06","06:01:10","AMMA06",86143.000,"cc",28321.303,6.00,2832.130,1,6,0.100,43424.000,0.200,33082.000,0.300,8600.000,0.500,800.000,1.000,237.000,5.000,0
"07/11/06","06:01:16","AMMA06",86605.000,"cc",28268.861,6.00,2826.886,1,6,0.100,43830.000,0.200,33209.000,0.300,8572.000,0.500,792.000,1.000,202.000,5.000,0
"07/11/06","06:01:22","AMMA06",86320.000,"cc",28340.397,6.00,2834.040,1,6,0.100,43689.000,0.200,32993.000,0.300,8640.000,0.500,804.000,1.000,194.000,5.000,0
"07/11/06","06:01:28","AMMA06",86391.000,"cc",28302.252,6.00,2830.225,1,6,0.100,43524.000,0.200,33294.000,0.300,8607.000,0.500,797.000,1.000,169.000,5.000,0
"07/11/06","06:01:34","AMMA06",86944.000,"cc",28352.576,6.00,2835.258,1,6,0.100,43869.000,0.200,33297.000,0.300,8821.000,0.500,780.000,1.000,177.000,5.000,0
"07/11/06","06:01:40","AMMA06",86380.000,"cc",28304.619,6.00,2830.462,1,6,0.100,43668.000,0.200,33102.000,0.300,8576.000,0.500,827.000,1.000,207.000,5.000,0
"07/11/06","06:01:46","AMMA06",86324.000,"cc",28277.186,6.00,2827.719,1,6,0.100,43428.000,0.200,33234.000,0.300,8648.000,0.500,805.000,1.000,209.000,5.000,0
"07/11/06","06:01:52","AMMA06",86705.000,"cc",28337.436,6.00,2833.744,1,6,0.100,43670.000,0.200,33379.000,0.300,8660.000,0.500,783.000,1.000,213.000,5.000,0
"07/11/06","06:01:58","AMMA06",86475.000,"cc",28324.443,6.00,2832.445,1,6,0.100,43458.000,0.200,33420.000,0.300,8597.000,0.500,770.000,1.000,230.000,5.000,0
"07/11/06","06:02:04","AMMA06",87107.000,"cc",28320.523,6.00,2832.053,1,6,0.100,43806.000,0.200,33533.000,0.300,8734.000,0.500,783.000,1.000,251.000,5.000,0
"07/11/06","06:02:10","AMMA06",86760.000,"cc",28316.951,6.00,2831.695,1,6,0.100,43628.000,0.200,33544.000,0.300,8631.000,0.500,737.000,1.000,220.000,5.000,0
"07/11/06","06:02:16","AMMA06",86946.000,"cc",28316.719,6.00,2831.672,1,6,0.100,43569.000,0.200,33804.000,0.300,8641.000,0.500,745.000,1.000,187.000,5.000,0
"07/11/06","06:02:22","AMMA06",86535.000,"cc",28318.307,6.00,2831.831,1,6,0.100,43673.000,0.200,33238.000,0.300,8601.000,0.500,804.000,1.000,219.000,5.000,0
"07/11/06","06:02:28","AMMA06",86981.000,"cc",28289.898,6.00,2828.990,1,6,0.100,43630.000,0.200,33732.000,0.300,8586.000,0.500,793.000,1.000,240.000,5.000,0
"07/11/06","06:02:34","AMMA06",86867.000,"cc",28336.609,6.00,2833.661,1,6,0.100,43485.000,0.200,33475.000,0.300,8837.000,0.500,801.000,1.000,269.000,5.000,0
"07/11/06","06:02:40","AMMA06",87018.000,"cc",28345.367,6.00,2834.537,1,6,0.100,43799.000,0.200,33398.000,0.300,8748.000,0.500,825.000,1.000,248.000,5.000,0
"07/11/06","06:02:46","AMMA06",86446.000,"cc",28296.900,6.00,2829.690,1,6,0.100,43125.000,0.200,33703.000,0.300,8622.000,0.500,784.000,1.000,212.000,5.000,0
"07/11/06","06:02:52","AMMA06",87338.000,"cc",28342.441,6.00,2834.244,1,6,0.100,43803.000,0.200,33805.000,0.300,8660.000,0.500,823.000,1.000,247.000,5.000,0
"07/11/06","06:02:58","AMMA06",86638.000,"cc",28325.293,6.00,2832.530,1,6,0.100,43179.000,0.200,33762.000,0.300,8611.000,0.500,851.000,1.000,235.000,5.000,0
"07/11/06","06:03:04","AMMA06",86756.000,"cc",28339.520,6.00,2833.952,1,6,0.100,43171.000,0.200,33763.000,0.300,8712.000,0.500,830.000,1.000,280.000,5.000,0
"07/11/06","06:03:10","AMMA06",87255.000,"cc",28294.852,6.00,2829.485,1,6,0.100,43674.000,0.200,33669.000,0.300,8819.000,0.500,825.000,1.000,268.000,5.000,0
"07/11/06","06:03:16","AMMA06",86759.000,"cc",28343.834,6.00,2834.384,1,6,0.100,43509.000,0.200,33658.000,0.300,8593.000,0.500,773.000,1.000,226.000,5.000,0
"07/11/06","06:03:22","AMMA06",86219.000,"cc",28349.170,6.00,2834.917,1,6,0.100,43284.000,0.200,33461.000,0.300,8510.000,0.500,756.000,1.000,208.000,5.000,0
"07/11/06","06:03:28","AMMA06",86861.000,"cc",28255.240,6.00,2825.524,1,6,0.100,43626.000,0.200,33398.000,0.300,8839.000,0.500,788.000,1.000,210.000,5.000,0
"07/11/06","06:03:34","AMMA06",86318.000,"cc",28314.662,6.00,2831.466,1,6,0.100,43254.000,0.200,33417.000,0.300,8590.000,0.500,827.000,1.000,230.000,5.000,0
"07/11/06","06:03:40","AMMA06",87015.000,"cc",28299.285,6.00,2829.929,1,6,0.100,43842.000,0.200,33487.000,0.300,8646.000,0.500,796.000,1.000,244.000,5.000,0
"07/11/06","06:03:46","AMMA06",87065.000,"cc",28364.910,6.00,2836.491,1,6,0.100,43846.000,0.200,33386.000,0.300,8733.000,0.500,828.000,1.000,272.000,5.000,0
"07/11/06","06:03:52","AMMA06",87114.000,"cc",28303.467,6.00,2830.347,1,6,0.100,43836.000,0.200,33477.000,0.300,8682.000,0.500,838.000,1.000,281.000,5.000,0
"07/11/06","06:03:58","AMMA06",86937.000,"cc",28301.473,6.00,2830.148,1,6,0.100,43850.000,0.200,33368.000,0.300,8660.000,0.500,829.000,1.000,230.000,5.000,0
"07/11/06","06:04:04","AMMA06",87365.000,"cc",28307.240,6.00,2830.724,1,6,0.100,43917.000,0.200,33714.000,0.300,8647.000,0.500,808.000,1.000,279.000,5.000,0
"07/11/06","06:04:10","AMMA06",87730.000,"cc",28342.498,6.00,2834.250,1,6,0.100,44156.000,0.200,33651.000,0.300,8739.000,0.500,856.000,1.000,328.000,5.000,0
"07/11/06","06:04:16","AMMA06",87665.000,"cc",28326.426,6.00,2832.643,1,6,0.100,44149.000,0.200,33420.000,0.300,8849.000,0.500,903.000,1.000,344.000,5.000,0
"07/11/06","06:04:22","AMMA06",87331.000,"cc",28344.811,6.00,2834.481,1,6,0.100,44182.000,0.200,33235.000,0.300,8674.000,0.500,936.000,1.000,304.000,5.000,0
"07/11/06","06:04:28","AMMA06",87112.000,"cc",28304.479,6.00,2830.448,1,6,0.100,44055.000,0.200,33323.000,0.300,8612.000,0.500,858.000,1.000,264.000,5.000,0
"07/11/06","06:04:34","AMMA06",87276.000,"cc",28247.832,6.00,2824.783,1,6,0.100,44583.000,0.200,33249.000,0.300,8426.000,0.500,778.000,1.000,240.000,5.000,0
"07/11/06","06:04:40","AMMA06",87942.000,"cc",28306.992,6.00,2830.700,1,6,0.100,44783.000,0.200,33281.000,0.300,8739.000,0.500,851.000,1.000,288.000,5.000,0
"07/11/06","06:04:46","AMMA06",86775.000,"cc",28304.160,6.00,2830.416,1,6,0.100,44467.000,0.200,32839.000,0.300,8352.000,0.500,860.000,1.000,257.000,5.000,0
"07/11/06","06:04:52","AMMA06",87361.000,"cc",28342.045,6.00,2834.205,1,6,0.100,44741.000,0.200,33011.000,0.300,8544.000,0.500,793.000,1.000,272.000,5.000,0
"07/11/06","06:04:58","AMMA06",86938.000,"cc",28352.555,6.00,2835.256,1,6,0.100,44600.000,0.200,32878.000,0.300,8455.000,0.500,765.000,1.000,240.000,5.000,0
"07/11/06","06:05:04","AMMA06",87526.000,"cc",28348.422,6.00,2834.842,1,6,0.100,44734.000,0.200,33038.000,0.300,8492.000,0.500,933.000,1.000,329.000,5.000,0
"07/11/06","06:05:10","AMMA06",86657.000,"cc",28252.422,6.00,2825.242,1,6,0.100,44609.000,0.200,32794.000,0.300,8235.000,0.500,739.000,1.000,280.000,5.000,0
"07/11/06","06:05:16","AMMA06",86706.000,"cc",28328.316,6.00,2832.832,1,6,0.100,44536.000,0.200,32595.000,0.300,8552.000,0.500,790.000,1.000,233.000,5.000,0
"07/11/06","06:05:22","AMMA06",86794.000,"cc",28338.133,6.00,2833.814,1,6,0.100,44585.000,0.200,32927.000,0.300,8295.000,0.500,743.000,1.000,244.000,5.000,0
"07/11/06","06:05:28","AMMA06",86482.000,"cc",28263.971,6.00,2826.397,1,6,0.100,44394.000,0.200,32651.000,0.300,8469.000,0.500,773.000,1.000,195.000,5.000,0
"07/11/06","06:05:34","AMMA06",86400.000,"cc",28338.348,6.00,2833.835,1,6,0.100,44078.000,0.200,33013.000,0.300,8329.000,0.500,743.000,1.000,237.000,5.000,0
"07/11/06","06:05:40","AMMA06",87072.000,"cc",28363.289,6.00,2836.329,1,6,0.100,44286.000,0.200,32961.000,0.300,8705.000,0.500,850.000,1.000,270.000,5.000,0
"07/11/06","06:05:46","AMMA06",87224.000,"cc",28260.906,6.00,2826.091,1,6,0.100,44677.000,0.200,32865.000,0.300,8563.000,0.500,831.000,1.000,288.000,5.000,0
"07/11/06","06:05:52","AMMA06",86594.000,"cc",28313.170,6.00,2831.317,1,6,0.100,43951.000,0.200,32924.000,0.300,8648.000,0.500,818.000,1.000,253.000,5.000,0
"07/11/06","06:05:58","AMMA06",87435.000,"cc",28269.238,6.00,2826.924,1,6,0.100,44448.000,0.200,33250.000,0.300,8673.000,0.500,816.000,1.000,248.000,5.000,0
"07/11/06","06:06:04","AMMA06",87343.000,"cc",28333.408,6.00,2833.341,1,6,0.100,44267.000,0.200,33217.000,0.300,8743.000,0.500,862.000,1.000,254.000,5.000,0
"07/11/06","06:06:10","AMMA06",86845.000,"cc",28357.773,6.00,2835.778,1,6,0.100,44050.000,0.200,33092.000,0.300,8627.000,0.500,828.000,1.000,248.000,5.000,0
"07/11/06","06:06:16","AMMA06",87228.000,"cc",28358.854,6.00,2835.886,1,6,0.100,44274.000,0.200,33284.000,0.300,8558.000,0.500,869.000,1.000,243.000,5.000,0
"07/11/06","06:06:22","AMMA06",87499.000,"cc",28321.606,6.00,2832.161,1,6,0.100,44355.000,0.200,33513.000,0.300,8578.000,0.500,807.000,1.000,246.000,5.000,0
"07/11/06","06:06:28","AMMA06",87146.000,"cc",28308.373,6.00,2830.837,1,6,0.100,44035.000,0.200,33364.000,0.300,8736.000,0.500,774.000,1.000,237.000,5.000,0
"07/11/06","06:06:34","AMMA06",87097.000,"cc",28300.190,6.00,2830.019,1,6,0.100,43791.000,0.200,33374.000,0.300,8859.000,0.500,837.000,1.000,236.000,5.000,0
"07/11/06","06:06:40","AMMA06",87123.000,"cc",28361.102,6.00,2836.110,1,6,0.100,43788.000,0.200,33485.000,0.300,8640.000,0.500,933.000,1.000,277.000,5.000,0
"07/11/06","06:06:46","AMMA06",87173.000,"cc",28337.449,6.00,2833.745,1,6,0.100,43853.000,0.200,33592.000,0.300,8645.000,0.500,822.000,1.000,261.000,5.000,0
"07/11/06","06:06:52","AMMA06",87592.000,"cc",28312.518,6.00,2831.252,1,6,0.100,43949.000,0.200,33411.000,0.300,9055.000,0.500,893.000,1.000,284.000,5.000,0
"07/11/06","06:06:58","AMMA06",87622.000,"cc",28286.481,6.00,2828.648,1,6,0.100,44011.000,0.200,33670.000,0.300,8826.000,0.500,862.000,1.000,253.000,5.000,0
"07/11/06","06:07:04","AMMA06",87363.000,"cc",28320.895,6.00,2832.090,1,6,0.100,44193.000,0.200,33356.000,0.300,8722.000,0.500,844.000,1.000,248.000,5.000,0
"07/11/06","06:07:10","AMMA06",87279.000,"cc",28299.342,6.00,2829.934,1,6,0.100,44023.000,0.200,33359.000,0.300,8828.000,0.500,824.000,1.000,245.000,5.000,0
"07/11/06","06:07:16","AMMA06",87215.000,"cc",28331.033,6.00,2833.104,1,6,0.100,44247.000,0.200,33198.000,0.300,8741.000,0.500,813.000,1.000,215.000,5.000,1.000
"07/11/06","06:07:22","AMMA06",87525.000,"cc",28325.098,6.00,2832.510,1,6,0.100,44110.000,0.200,33633.000,0.300,8680.000,0.500,850.000,1.000,252.000,5.000,0
"07/11/06","06:07:28","AMMA06",87202.000,"cc",28297.611,6.00,2829.761,1,6,0.100,43697.000,0.200,33542.000,0.300,8935.000,0.500,801.000,1.000,227.000,5.000,0
"07/11/06","06:07:34","AMMA06",87464.000,"cc",28317.459,6.00,2831.746,1,6,0.100,43983.000,0.200,33495.000,0.300,8876.000,0.500,865.000,1.000,245.000,5.000,0
"07/11/06","06:07:40","AMMA06",87988.000,"cc",28327.344,6.00,2832.735,1,6,0.100,43963.000,0.200,33817.000,0.300,8992.000,0.500,915.000,1.000,301.000,5.000,0
"07/11/06","06:07:46","AMMA06",87794.000,"cc",28324.295,6.00,2832.430,1,6,0.100,44065.000,0.200,33541.000,0.300,8972.000,0.500,932.000,1.000,284.000,5.000,0
"07/11/06","06:07:52","AMMA06",87941.000,"cc",28308.174,6.00,2830.818,1,6,0.100,43717.000,0.200,33923.000,0.300,9071.000,0.500,937.000,1.000,293.000,5.000,0
"07/11/06","06:07:58","AMMA06",88583.000,"cc",28284.072,6.00,2828.408,1,6,0.100,43657.000,0.200,34103.000,0.300,9325.000,0.500,1051.000,1.000,447.000,5.000,0
"07/11/06","06:08:04","AMMA06",89243.000,"cc",28322.449,6.00,2832.245,1,6,0.100,44099.000,0.200,34288.000,0.300,9173.000,0.500,1180.000,1.000,503.000,5.000,0
"07/11/06","06:08:10","AMMA06",91046.000,"cc",28307.129,6.00,2830.713,1,6,0.100,44459.000,0.200,34603.000,0.300,9930.000,0.500,1370.000,1.000,684.000,5.000,0
"07/11/06","06:08:16","AMMA06",89791.000,"cc",28330.582,6.00,2833.058,1,6,0.100,44237.000,0.200,34473.000,0.300,9372.000,0.500,1229.000,1.000,480.000,5.000,0
"07/11/06","06:08:22","AMMA06",90677.000,"cc",28318.270,6.00,2831.827,1,6,0.100,44066.000,0.200,34773.000,0.300,9633.000,0.500,1503.000,1.000,702.000,5.000,0
"07/11/06","06:08:28","AMMA06",89019.000,"cc",28358.945,6.00,2835.895,1,6,0.100,43895.000,0.200,34595.000,0.300,9155.000,0.500,1006.000,1.000,368.000,5.000,0
"07/11/06","06:08:34","AMMA06",88479.000,"cc",28305.875,6.00,2830.588,1,6,0.100,43441.000,0.200,34388.000,0.300,9306.000,0.500,989.000,1.000,355.000,5.000,0
"07/11/06","06:08:40","AMMA06",89283.000,"cc",28300.463,6.00,2830.046,1,6,0.100,43945.000,0.200,34543.000,0.300,9220.000,0.500,1125.000,1.000,450.000,5.000,0
"07/11/06","06:08:46","AMMA06",88316.000,"cc",28332.441,6.00,2833.244,1,6,0.100,43404.000,0.200,34237.000,0.300,9203.000,0.500,1046.000,1.000,426.000,5.000,0
"07/11/06","06:08:52","AMMA06",88114.000,"cc",28305.479,6.00,2830.548,1,6,0.100,43628.000,0.200,34423.000,0.300,8864.000,0.500,898.000,1.000,301.000,5.000,0
"07/11/06","06:08:58","AMMA06",88315.000,"cc",28313.701,6.00,2831.370,1,6,0.100,43611.000,0.200,34322.000,0.300,8987.000,0.500,1035.000,1.000,360.000,5.000,0
"07/11/06","06:09:04","AMMA06",88624.000,"cc",28306.484,6.00,2830.649,1,6,0.100,43472.000,0.200,34323.000,0.300,9360.000,0.500,1078.000,1.000,391.000,5.000,0
"07/11/06","06:09:10","AMMA06",88890.000,"cc",28339.283,6.00,2833.929,1,6,0.100,43665.000,0.200,34527.000,0.300,9269.000,0.500,1055.000,1.000,373.000,5.000,1.000
"07/11/06","06:09:16","AMMA06",88526.000,"cc",28280.369,6.00,2828.037,1,6,0.100,44084.000,0.200,33893.000,0.300,9149.000,0.500,1026.000,1.000,374.000,5.000,0
"07/11/06","06:09:22","AMMA06",88360.000,"cc",28343.057,6.00,2834.306,1,6,0.100,43429.000,0.200,34518.000,0.300,9168.000,0.500,923.000,1.000,322.000,5.000,0
"07/11/06","06:09:28","AMMA06",87561.000,"cc",28307.811,6.00,2830.781,1,6,0.100,43789.000,0.200,33845.000,0.300,8874.000,0.500,782.000,1.000,271.000,5.000,0
"07/11/06","06:09:34","AMMA06",87071.000,"cc",28273.248,6.00,2827.325,1,6,0.100,43219.000,0.200,33961.000,0.300,8824.000,0.500,787.000,1.000,279.000,5.000,1.000
"07/11/06","06:09:40","AMMA06",87141.000,"cc",28323.178,6.00,2832.318,1,6,0.100,43258.000,0.200,33987.000,0.300,8802.000,0.500,814.000,1.000,280.000,5.000,0
"07/11/06","06:09:46","AMMA06",87418.000,"cc",28368.006,6.00,2836.801,1,6,0.100,43655.000,0.200,33780.000,0.300,8813.000,0.500,909.000,1.000,261.000,5.000,0
"07/11/06","06:09:52","AMMA06",87522.000,"cc",28343.395,6.00,2834.340,1,6,0.100,43679.000,0.200,34025.000,0.300,8727.000,0.500,838.000,1.000,253.000,5.000,0
"07/11/06","06:09:58","AMMA06",87089.000,"cc",28317.367,6.00,2831.737,1,6,0.100,43312.000,0.200,33939.000,0.300,8695.000,0.500,851.000,1.000,292.000,5.000,0
"07/11/06","06:10:04","AMMA06",89164.000,"cc",28316.590,6.00,2831.659,1,6,0.100,44745.000,0.200,33693.000,0.300,9149.000,0.500,1146.000,1.000,431.000,5.000,0
"07/11/06","06:10:10","AMMA06",88227.000,"cc",28297.994,6.00,2829.800,1,6,0.100,43829.000,0.200,34136.000,0.300,8895.000,0.500,1004.000,1.000,363.000,5.000,0
"07/11/06","06:10:16","AMMA06",87561.000,"cc",28285.555,6.00,2828.556,1,6,0.100,43028.000,0.200,33991.000,0.300,9252.000,0.500,992.000,1.000,298.000,5.000,0
"07/11/06","06:10:22","AMMA06",87660.000,"cc",28362.695,6.00,2836.270,1,6,0.100,43097.000,0.200,34075.000,0.300,9165.000,0.500,1015.000,1.000,308.000,5.000,0
"07/11/06","06:10:28","AMMA06",87562.000,"cc",28319.125,6.00,2831.913,1,6,0.100,43414.000,0.200,33856.000,0.300,9144.000,0.500,912.000,1.000,236.000,5.000,0
"07/11/06","06:10:34","AMMA06",87727.000,"cc",28263.477,6.00,2826.348,1,6,0.100,43896.000,0.200,33788.000,0.300,8987.000,0.500,810.000,1.000,246.000,5.000,0
"07/11/06","06:10:40","AMMA06",87454.000,"cc",28318.863,6.00,2831.887,1,6,0.100,43682.000,0.200,33805.000,0.300,8830.000,0.500,876.000,1.000,261.000,5.000,0
"07/11/06","06:10:46","AMMA06",88080.000,"cc",28329.996,6.00,2833.000,1,6,0.100,43958.000,0.200,33851.000,0.300,9020.000,0.500,941.000,1.000,310.000,5.000,0
"07/11/06","06:10:52","AMMA06",87613.000,"cc",28347.695,6.00,2834.770,1,6,0.100,43560.000,0.200,33782.000,0.300,8985.000,0.500,979.000,1.000,307.000,5.000,0
"07/11/06","06:10:58","AMMA06",88056.000,"cc",28353.666,6.00,2835.367,1,6,0.100,43950.000,0.200,33740.000,0.300,9041.000,0.500,990.000,1.000,335.000,5.000,0
"07/11/06","06:11:04","AMMA06",87484.000,"cc",28315.619,6.00,2831.562,1,6,0.100,43522.000,0.200,33557.000,0.300,9000.000,0.500,1016.000,1.000,389.000,5.000,0
"07/11/06","06:11:10","AMMA06",88114.000,"cc",28264.691,6.00,2826.469,1,6,0.100,43949.000,0.200,33795.000,0.300,9037.000,0.500,977.000,1.000,356.000,5.000,0
"07/11/06","06:11:16","AMMA06",88147.000,"cc",28371.371,6.00,2837.137,1,6,0.100,43837.000,0.200,33789.000,0.300,9068.000,0.500,1078.000,1.000,375.000,5.000,0
"07/11/06","06:11:22","AMMA06",87940.000,"cc",28234.520,6.00,2823.452,1,6,0.100,43969.000,0.200,33827.000,0.300,8886.000,0.500,944.000,1.000,314.000,5.000,0
"07/11/06","06:11:28","AMMA06",88449.000,"cc",28349.908,6.00,2834.991,1,6,0.100,43842.000,0.200,33915.000,0.300,9169.000,0.500,1115.000,1.000,408.000,5.000,0
"07/11/06","06:11:34","AMMA06",87728.000,"cc",28314.604,6.00,2831.460,1,6,0.100,43803.000,0.200,33790.000,0.300,8946.000,0.500,923.000,1.000,266.000,5.000,0
"07/11/06","06:11:40","AMMA06",88364.000,"cc",28339.688,6.00,2833.969,1,6,0.100,44030.000,0.200,33813.000,0.300,9065.000,0.500,1058.000,1.000,398.000,5.000,0
"07/11/06","06:11:46","AMMA06",89570.000,"cc",28281.084,6.00,2828.109,1,6,0.100,44611.000,0.200,33918.000,0.300,9312.000,0.500,1204.000,1.000,525.000,5.000,0
"07/11/06","06:11:52","AMMA06",87973.000,"cc",28307.848,6.00,2830.785,1,6,0.100,44025.000,0.200,33728.000,0.300,8821.000,0.500,1004.000,1.000,395.000,5.000,0
"07/11/06","06:11:58","AMMA06",87822.000,"cc",28322.586,6.00,2832.259,1,6,0.100,44075.000,0.200,33518.000,0.300,8957.000,0.500,923.000,1.000,349.000,5.000,0
"07/11/06","06:12:04","AMMA06",87666.000,"cc",28340.643,6.00,2834.065,1,6,0.100,43904.000,0.200,33635.000,0.300,8883.000,0.500,929.000,1.000,314.000,5.000,1.000
"07/11/06","06:12:10","AMMA06",87575.000,"cc",28341.191,6.00,2834.119,1,6,0.100,43867.000,0.200,33560.000,0.300,8820.000,0.500,997.000,1.000,331.000,5.000,0
"07/11/06","06:12:16","AMMA06",87897.000,"cc",28268.930,6.00,2826.893,1,6,0.100,44147.000,0.200,33504.000,0.300,8947.000,0.500,981.000,1.000,318.000,5.000,0
"07/11/06","06:12:22","AMMA06",87486.000,"cc",28306.748,6.00,2830.675,1,6,0.100,43714.000,0.200,33634.000,0.300,8887.000,0.500,925.000,1.000,326.000,5.000,0
"07/11/06","06:12:28","AMMA06",87468.000,"cc",28350.211,6.00,2835.021,1,6,0.100,43905.000,0.200,33620.000,0.300,8833.000,0.500,874.000,1.000,236.000,5.000,0
"07/11/06","06:12:34","AMMA06",87314.000,"cc",28316.100,6.00,2831.610,1,6,0.100,43554.000,0.200,33680.000,0.300,8907.000,0.500,905.000,1.000,268.000,5.000,0
"07/11/06","06:12:40","AMMA06",90398.000,"cc",28298.506,6.00,2829.851,1,6,0.100,44644.000,0.200,34241.000,0.300,9499.000,0.500,1402.000,1.000,612.000,5.000,0
"07/11/06","06:12:46","AMMA06",90855.000,"cc",28318.717,6.00,2831.872,1,6,0.100,44993.000,0.200,34204.000,0.300,9571.000,0.500,1400.000,1.000,687.000,5.000,0
"07/11/06","06:12:52","AMMA06",88865.000,"cc",28290.059,6.00,2829.006,1,6,0.100,44286.000,0.200,33818.000,0.300,9125.000,0.500,1170.000,1.000,466.000,5.000,0
"07/11/06","06:12:58","AMMA06",88217.000,"cc",28332.604,6.00,2833.261,1,6,0.100,43938.000,0.200,34035.000,0.300,8908.000,0.500,993.000,1.000,343.000,5.000,0
"07/11/06","06:13:04","AMMA06",88263.000,"cc",28296.742,6.00,2829.674,1,6,0.100,43683.000,0.200,33923.000,0.300,9277.000,0.500,1005.000,1.000,375.000,5.000,0
"07/11/06","06:13:10","AMMA06",87761.000,"cc",28304.389,6.00,2830.439,1,6,0.100,43796.000,0.200,33710.000,0.300,9054.000,0.500,924.000,1.000,277.000,5.000,0
"07/11/06","06:13:16","AMMA06",89386.000,"cc",28353.934,6.00,2835.394,1,6,0.100,44270.000,0.200,33954.000,0.300,9510.000,0.500,1172.000,1.000,480.000,5.000,0
"07/11/06","06:13:22","AMMA06",88806.000,"cc",28349.307,6.00,2834.931,1,6,0.100,43726.000,0.200,34355.000,0.300,9212.000,0.500,1084.000,1.000,429.000,5.000,0
"07/11/06","06:13:28","AMMA06",90660.000,"cc",28301.873,6.00,2830.188,1,6,0.100,44481.000,0.200,34270.000,0.300,9724.000,0.500,1494.000,1.000,691.000,5.000,0
"07/11/06","06:13:34","AMMA06",88857.000,"cc",28342.565,6.00,2834.257,1,6,0.100,44058.000,0.200,34097.000,0.300,9163.000,0.500,1132.000,1.000,407.000,5.000,0
"07/11/06","06:13:40","AMMA06",88502.000,"cc",28289.703,6.00,2828.971,1,6,0.100,43917.000,0.200,34101.000,0.300,9071.000,0.500,1059.000,1.000,354.000,5.000,0
"07/11/06","06:13:46","AMMA06",87781.000,"cc",28298.262,6.00,2829.826,1,6,0.100,43766.000,0.200,33625.000,0.300,9057.000,0.500,999.000,1.000,334.000,5.000,0
"07/11/06","06:13:52","AMMA06",89131.000,"cc",28329.717,6.00,2832.972,1,6,0.100,43931.000,0.200,34141.000,0.300,9371.000,0.500,1214.000,1.000,474.000,5.000,0
"07/11/06","06:13:58","AMMA06",89255.000,"cc",28305.717,6.00,2830.572,1,6,0.100,43844.000,0.200,34129.000,0.300,9565.000,0.500,1200.000,1.000,517.000,5.000,0
"07/11/06","06:14:04","AMMA06",89775.000,"cc",28318.412,6.00,2831.841,1,6,0.100,44364.000,0.200,34114.000,0.300,9417.000,0.500,1328.000,1.000,552.000,5.000,0
"07/11/06","06:14:10","AMMA06",88154.000,"cc",28366.773,6.00,2836.678,1,6,0.100,43616.000,0.200,33936.000,0.300,9254.000,0.500,1011.000,1.000,337.000,5.000,0
"07/11/06","06:14:16","AMMA06",87369.000,"cc",28296.932,6.00,2829.693,1,6,0.100,43478.000,0.200,33691.000,0.300,9002.000,0.500,909.000,1.000,289.000,5.000,0